EW4453 Weather Reports


time (UTC)temp
F
wind
direction
speed
knots
gust
knots
rain 1hr
in
rain 24hr
in
rain mn
in
humidity
%
barometer
mb
20260505113031 79 108 0.9 5.2 0.00 0.03 0.00 82 1017.2
20260505111538 78 149 0.9 5.2 0.00 0.03 0.00 84 1017.1
20260505101547 78 97 0.0 2.6 0.00 0.03 0.00 84 1016.4
20260505100050 78 54 0.9 4.3 0.00 0.03 0.00 84 1016.4
20260505094550 78 142 0.0 3.5 0.00 0.03 0.00 85 1016.3
20260505093052 78 78 0.9 4.3 0.00 0.03 0.00 84 1016.2
20260505091553 78 82 0.9 4.3 0.00 0.03 0.00 84 1016.0
20260505090054 78 137 3.5 8.7 0.00 0.03 0.00 85 1015.8
20260505084503 78 101 1.7 7.8 0.00 0.05 0.00 85 1015.6
20260505083012 78 137 0.9 5.2 0.00 0.05 0.00 84 1015.5
20260505081515 78 138 0.9 6.1 0.00 0.05 0.00 83 1015.4
20260505080019 77 100 0.9 7.8 0.00 0.05 0.00 82 1015.2
20260505074517 77 139 1.7 10.4 0.00 0.05 0.00 83 1015.1
20260505073041 77 73 2.6 7.8 0.00 0.05 0.00 85 1015.1
20260505071546 77 52 2.6 5.2 0.00 0.05 0.00 85 1015.1
20260505070032 77 35 0.9 7.0 0.00 0.05 0.00 85 1015.1
20260505064544 77 100 0.9 5.2 0.00 0.05 0.00 86 1015.2
20260505063043 77 84 0.0 3.5 0.00 0.05 0.00 85 1015.3
20260505061544 78 172 0.9 6.1 0.00 0.05 0.00 85 1015.3
20260505060046 78 359 0.0 7.0 0.00 0.05 0.00 83 1015.4
20260505054554 78 147 2.6 11.3 0.00 0.06 0.00 83 1015.5
20260505053058 78 359 3.5 13.0 0.00 0.06 0.00 83 1015.5
20260505051550 78 133 1.7 5.2 0.00 0.06 0.00 83 1015.8
20260505041504 79 55 0.9 13.0 0.00 0.06 0.00 82 1016.2
20260505040006 79 43 0.9 6.1 0.00 0.06 0.00 82 1016.1
20260505034507 79 66 0.9 5.2 0.00 0.06 0.06 81 1016.4
20260505033100 79 133 3.5 7.8 0.00 0.06 0.06 81 1016.5
20260505031600 79 68 2.6 5.2 0.00 0.06 0.06 82 1016.7
20260505030021 80 127 0.9 6.1 0.00 0.06 0.06 79 1016.6
20260505024602 79 134 4.3 9.6 0.00 0.06 0.06 79 1016.5
20260505023109 80 43 1.7 7.8 0.00 0.06 0.06 80 1016.6
20260505021603 79 38 1.7 4.3 0.00 0.06 0.06 79 1016.7
20260505020002 80 149 2.6 11.3 0.00 0.06 0.06 78 1016.6
20260505014503 79 127 3.5 9.6 0.00 0.06 0.06 77 1016.4
20260505013055 79 45 5.2 13.0 0.00 0.06 0.06 78 1016.3
20260505011557 80 359 4.3 9.6 0.00 0.06 0.06 79 1016.2
20260505010103 80 157 2.6 8.7 0.00 0.06 0.06 78 1016.3
20260505004559 79 120 2.6 7.0 0.00 0.06 0.06 78 1016.0
20260505003106 79 47 0.0 5.2 0.00 0.06 0.06 80 1015.9
20260505001601 80 21 0.0 7.8 0.00 0.06 0.06 81 1015.8
20260505000001 79 34 0.0 3.5 0.00 0.06 0.06 80 1015.6
20260504234513 80 59 0.0 2.6 0.00 0.06 0.06 79 1015.6
20260504233013 80 56 0.9 9.6 0.00 0.06 0.06 77 1015.3
20260504231514 80 1.7 8.7 0.00 0.06 0.06 77 1015.0
20260504230026 80 84 0.9 3.5 0.00 0.06 0.06 76 1014.9
20260504224526 81 359 0.0 3.5 0.00 0.06 0.06 77 1014.8
20260504223037 82 135 0.0 2.6 0.00 0.06 0.06 76 1014.6
20260504221540 82 124 0.0 7.8 0.00 0.06 0.06 75 1014.6
20260504220048 83 160 1.7 7.8 0.00 0.06 0.06 74 1014.3
20260504214550 83 131 1.7 6.1 0.00 0.06 0.06 74 1014.4
20260504213049 84 53 3.5 11.3 0.00 0.06 0.06 74 1014.2
20260504211544 84 66 1.7 12.2 0.00 0.06 0.06 74 1014.1
20260504210045 84 78 0.9 6.1 0.00 0.06 0.06 72 1014.1
20260504204546 85 57 0.0 4.3 0.00 0.06 0.06 72 1014.0
20260504203048 85 10 0.9 6.1 0.00 0.06 0.06 71 1013.9
20260504201551 84 33 1.7 5.2 0.00 0.06 0.06 70 1013.9
20260504200056 84 359 0.9 7.0 0.00 0.06 0.06 71 1014.0
20260504194554 84 122 0.9 7.0 0.00 0.06 0.06 73 1014.3
20260504193003 85 138 0.9 2.6 0.00 0.06 0.06 73 1014.3
20260504191515 85 307 2.6 7.0 0.00 0.06 0.06 72 1014.3
20260504190010 85 105 1.7 7.0 0.00 0.06 0.06 73 1014.4
20260504184518 85 359 0.9 7.0 0.00 0.06 0.06 73 1014.3
20260504183035 85 64 0.9 6.1 0.00 0.06 0.06 74 1014.4
20260504181526 85 130 1.7 6.1 0.00 0.06 0.06 73 1014.6
20260504180035 85 144 0.9 3.5 0.00 0.06 0.06 74 1014.7
20260504174534 85 215 0.9 5.2 0.00 0.06 0.06 74 1014.9
20260504173049 85 359 2.6 12.2 0.00 0.06 0.06 74 1015.1
20260504171529 85 359 2.6 7.8 0.00 0.06 0.06 74 1015.5